| time (UTC) | temp F | wind direction | speed knots | gust knots | rain 1hr in | rain 24hr in | rain mn in | humidity % | barometer mb |
| 20260508163039 | 48 | 327 | 3.5 | 0.0 | 0.00 | 0.00 | 0.03 | 100 | 1011.2 |
| 20260508161627 | 48 | 327 | 4.3 | 0.0 | 0.00 | 0.00 | 0.03 | 100 | 1011.2 |
| 20260508160118 | 48 | 319 | 4.3 | 0.0 | 0.00 | 0.00 | 0.03 | 100 | 1011.3 |
| 20260508154508 | 48 | 319 | 4.3 | 0.0 | 0.00 | 0.00 | 0.03 | 100 | 1011.1 |
| 20260508153200 | 48 | 305 | 3.5 | 0.0 | 0.00 | 0.00 | 0.03 | 3 | 1011.0 |
| 20260508151550 | 48 | 301 | 3.5 | 0.0 | 0.00 | 0.00 | 0.03 | 16 | 1010.9 |
| 20260508150041 | 47 | 295 | 2.6 | 0.0 | 0.00 | 0.00 | 0.03 | 24 | 1010.8 |
| 20260508144531 | 47 | 295 | 1.7 | 0.0 | 0.00 | 0.00 | 0.03 | 39 | 1010.9 |
| 20260508143025 | 48 | 295 | 2.6 | 0.0 | 0.00 | 0.00 | 0.03 | 27 | 1011.0 |
| 20260508141513 | 46 | 295 | 2.6 | 0.0 | 0.00 | 0.00 | 0.03 | 21 | 1011.1 |
| 20260508140105 | 45 | 295 | 2.6 | 0.0 | 0.00 | 0.00 | 0.03 | 100 | 1011.2 |
| 20260508134613 | 45 | 300 | 4.3 | 0.0 | 0.00 | 0.00 | 0.03 | 100 | 1011.2 |
| 20260508133046 | 45 | 297 | 3.5 | 0.0 | 0.00 | 0.00 | 0.03 | 100 | 1011.2 |
| 20260508131538 | 45 | 298 | 2.6 | 0.0 | 0.00 | 0.00 | 0.03 | 100 | 1010.8 |
| 20260508130129 | 45 | 298 | 2.6 | 0.0 | 0.00 | 0.00 | 0.03 | 100 | 1010.8 |
| 20260508124619 | 45 | 298 | 3.5 | 0.0 | 0.00 | 0.00 | 0.03 | 100 | 1010.8 |
| 20260508123011 | 45 | 288 | 2.6 | 0.0 | 0.00 | 0.00 | 0.03 | 100 | 1010.7 |
| 20260508121502 | 45 | 266 | 0.9 | 0.0 | 0.00 | 0.00 | 0.03 | 100 | 1010.4 |
| 20260508120154 | 44 | 263 | 0.0 | 0.0 | 0.00 | 0.00 | 0.03 | 100 | 1010.2 |
| 20260508114646 | 44 | 263 | 0.0 | 0.0 | 0.00 | 0.00 | 0.03 | 100 | 1010.1 |
| 20260508111528 | 43 | 263 | 1.7 | 0.0 | 0.00 | 0.00 | 0.03 | 100 | 1010.0 |
| 20260508110120 | 43 | 263 | 1.7 | 0.0 | 0.00 | 0.00 | 0.03 | 100 | 1010.0 |
| 20260508104512 | 43 | 263 | 0.9 | 0.0 | 0.00 | 0.00 | 0.03 | 100 | 1010.1 |
| 20260508103059 | 43 | 263 | 1.7 | 0.0 | 0.00 | 0.00 | 0.03 | 100 | 1010.1 |
| 20260508100042 | 42 | 265 | 1.7 | 0.0 | 0.00 | 0.00 | 0.03 | 100 | 1010.2 |
| 20260508094539 | 42 | 262 | 1.7 | 0.0 | 0.00 | 0.00 | 0.03 | 100 | 1010.2 |
| 20260508093125 | 42 | 265 | 1.7 | 0.0 | 0.00 | 0.00 | 0.03 | 100 | 1010.2 |
| 20260508091514 | 42 | 265 | 1.7 | 0.0 | 0.00 | 0.00 | 0.03 | 100 | 1010.0 |
| 20260508090106 | 43 | 265 | 1.7 | 0.0 | 0.00 | 0.00 | 0.03 | 100 | 1010.0 |
| 20260508083149 | 43 | 265 | 1.7 | 0.0 | 0.00 | 0.00 | 0.03 | 100 | 1010.0 |
| 20260508081559 | 43 | 265 | 1.7 | 0.0 | 0.00 | 0.00 | 0.03 | 100 | 1009.8 |
| 20260508080030 | 43 | 272 | 1.7 | 0.0 | 0.00 | 0.00 | 0.03 | 100 | 1009.7 |
| 20260508074521 | 44 | 272 | 0.9 | 0.0 | 0.00 | 0.00 | 0.03 | 100 | 1009.7 |
| 20260508073112 | 44 | 271 | 1.7 | 0.0 | 0.00 | 0.00 | 0.03 | 100 | 1009.7 |
| 20260508071502 | 44 | 263 | 0.9 | 0.0 | 0.00 | 0.00 | 0.03 | 100 | 1009.8 |
| 20260508070055 | 44 | 263 | 1.7 | 0.0 | 0.00 | 0.00 | 0.03 | 100 | 1009.8 |
| 20260508064544 | 44 | 268 | 1.7 | 0.0 | 0.00 | 0.00 | 0.03 | 100 | 1009.9 |
| 20260508063046 | 44 | 269 | 0.9 | 0.0 | 0.00 | 0.00 | 0.03 | 100 | 1010.0 |
| 20260508061525 | 44 | 269 | 1.7 | 0.0 | 0.00 | 0.00 | 0.03 | 100 | 1010.1 |
| 20260508060016 | 44 | 259 | 1.7 | 0.0 | 0.00 | 0.00 | 0.03 | 100 | 1010.0 |
| 20260508054608 | 44 | 278 | 1.7 | 0.0 | 0.00 | 0.00 | 0.03 | 100 | 1010.1 |
| 20260508053059 | 45 | 278 | 1.7 | 0.0 | 0.00 | 0.00 | 0.03 | 100 | 1010.0 |
| 20260508051549 | 45 | 261 | 1.7 | 0.0 | 0.00 | 0.00 | 0.03 | 100 | 1010.0 |
| 20260508050041 | 46 | 300 | 3.5 | 0.0 | 0.00 | 0.00 | 0.03 | 3 | 1010.1 |
| 20260508044629 | 47 | 290 | 3.5 | 0.0 | 0.00 | 0.00 | 0.01 | 23 | 1010.0 |
| 20260508043121 | 47 | 360 | 3.5 | 0.0 | 0.00 | 0.00 | 0.00 | 31 | 1009.7 |
| 20260508041510 | 47 | 344 | 10.4 | 0.0 | 0.00 | 0.00 | 0.00 | 15 | 1009.7 |
| 20260508040003 | 47 | 319 | 6.1 | 0.0 | 0.00 | 0.00 | 0.00 | 100 | 1009.6 |
| 20260508034654 | 47 | 294 | 7.0 | 0.0 | 0.00 | 0.00 | 0.00 | 5 | 1009.5 |
| 20260508033043 | 47 | 299 | 6.1 | 0.0 | 0.00 | 0.00 | 0.00 | 31 | 1009.4 |
| 20260508031536 | 47 | 303 | 5.2 | 0.0 | 0.00 | 0.00 | 0.00 | 35 | 1009.2 |
| 20260508030027 | 47 | 312 | 4.3 | 0.0 | 0.00 | 0.00 | 0.00 | 40 | 1009.2 |
| 20260508024531 | 48 | 313 | 3.5 | 0.0 | 0.00 | 0.00 | 0.00 | 45 | 1009.2 |
| 20260508023108 | 48 | 308 | 3.5 | 0.0 | 0.00 | 0.00 | 0.00 | 48 | 1009.2 |
| 20260508021559 | 47 | 289 | 0.9 | 0.0 | 0.00 | 0.00 | 0.00 | 50 | 1009.2 |
| 20260508020057 | 47 | 289 | 0.9 | 0.0 | 0.00 | 0.00 | 0.00 | 53 | 1009.3 |
| 20260508014544 | 47 | 289 | 0.9 | 0.0 | 0.00 | 0.00 | 0.00 | 53 | 1009.3 |
| 20260508013032 | 47 | 290 | 0.9 | 0.0 | 0.00 | 0.00 | 0.00 | 54 | 1009.3 |
| 20260508011523 | 47 | 290 | 1.7 | 0.0 | 0.00 | 0.00 | 0.00 | 54 | 1009.3 |
| 20260508010015 | 48 | 304 | 2.6 | 0.0 | 0.00 | 0.00 | 0.00 | 54 | 1009.2 |
| 20260508004504 | 48 | 291 | 1.7 | 0.0 | 0.00 | 0.00 | 0.00 | 55 | 1009.0 |
| 20260508003058 | 48 | 290 | 0.9 | 0.0 | 0.00 | 0.00 | 0.00 | 55 | 1008.8 |
| 20260508000041 | 48 | 290 | 0.9 | 0.0 | 0.00 | 0.00 | 0.00 | 54 | 1008.8 |
| 20260507234630 | 48 | 290 | 2.6 | 0.0 | 0.00 | 0.00 | 0.00 | 54 | 1008.8 |
| 20260507233034 | 48 | 301 | 2.6 | 0.0 | 0.00 | 0.00 | 0.00 | 54 | 1008.8 |
| 20260507231510 | 48 | 307 | 2.6 | 0.0 | 0.00 | 0.00 | 0.00 | 54 | 1008.7 |
| 20260507230107 | 48 | 307 | 1.7 | 0.0 | 0.00 | 0.00 | 0.00 | 54 | 1008.6 |
| 20260507224557 | 49 | 307 | 2.6 | 0.0 | 0.00 | 0.00 | 0.00 | 54 | 1008.6 |
| 20260507223042 | 48 | 310 | 1.7 | 0.0 | 0.00 | 0.00 | 0.00 | 54 | 1008.6 |
| 20260507221635 | 49 | 315 | 1.7 | 0.0 | 0.00 | 0.00 | 0.00 | 53 | 1008.6 |
| 20260507220025 | 49 | 348 | 0.9 | 0.0 | 0.00 | 0.00 | 0.00 | 53 | 1008.8 |
| 20260507214518 | 49 | 348 | 0.9 | 0.0 | 0.00 | 0.00 | 0.00 | 51 | 1008.7 |
| 20260507213007 | 49 | 348 | 1.7 | 0.0 | 0.00 | 0.00 | 0.00 | 53 | 1008.7 |
| 20260507211659 | 49 | 334 | 1.7 | 0.0 | 0.00 | 0.00 | 0.00 | 54 | 1008.7 |
| 20260507210057 | 49 | 321 | 0.9 | 0.0 | 0.00 | 0.00 | 0.00 | 53 | 1008.8 |
| 20260507204640 | 50 | 321 | 1.7 | 0.0 | 0.00 | 0.00 | 0.00 | 50 | 1008.8 |
| 20260507203132 | 49 | 321 | 1.7 | 0.0 | 0.00 | 0.00 | 0.00 | 52 | 1008.9 |
| 20260507201525 | 50 | 319 | 1.7 | 0.0 | 0.00 | 0.00 | 0.00 | 53 | 1009.1 |
| 20260507200013 | 50 | 350 | 1.7 | 0.0 | 0.00 | 0.00 | 0.00 | 53 | 1009.1 |
| 20260507194504 | 50 | 355 | 2.6 | 0.0 | 0.00 | 0.00 | 0.00 | 52 | 1009.2 |
| 20260507193059 | 49 | 9 | 3.5 | 0.0 | 0.00 | 0.00 | 0.00 | 53 | 1009.4 |
| 20260507191547 | 49 | 360 | 2.6 | 0.0 | 0.00 | 0.00 | 0.00 | 53 | 1009.7 |
| 20260507190137 | 48 | 344 | 1.7 | 0.0 | 0.00 | 0.00 | 0.00 | 54 | 1009.9 |
| 20260507184629 | 47 | 19 | 1.7 | 0.0 | 0.00 | 0.00 | 0.00 | 53 | 1010.1 |
| 20260507183020 | 47 | 17 | 2.6 | 0.0 | 0.00 | 0.00 | 0.00 | 53 | 1010.3 |
| 20260507181511 | 47 | 12 | 1.7 | 0.0 | 0.00 | 0.00 | 0.00 | 54 | 1010.3 |
| 20260507180002 | 47 | 12 | 2.6 | 0.0 | 0.00 | 0.00 | 0.00 | 54 | 1010.3 |
| 20260507174556 | 47 | 355 | 4.3 | 0.0 | 0.00 | 0.00 | 0.00 | 54 | 1010.3 |
| 20260507173146 | 48 | 347 | 2.6 | 0.0 | 0.00 | 0.00 | 0.00 | 54 | 1010.2 |
| 20260507171637 | 47 | 9 | 2.6 | 0.0 | 0.00 | 0.00 | 0.00 | 53 | 1010.5 |
| 20260507170028 | 47 | 355 | 4.3 | 0.0 | 0.00 | 0.00 | 0.00 | 54 | 1010.6 |
| 20260507164517 | 47 | 342 | 4.3 | 0.0 | 0.00 | 0.00 | 0.00 | 54 | 1010.6 |